星链-5710 (STARLINK-5710 )

导读

STARLINK-5710是美国SpaceX公司星链(Starlink)星座的卫星,于2023年2月12日发射入轨,属于星链第二代星座部署序列,用于构建全球卫星互联网通信网络。作为低轨宽带卫星,它依托星链星座架构,可为全球提供高速宽带接入服务,覆盖个人消费、航空、海事、应急通信等场景,是SpaceX推进大规模星座组网、实现全球互联目标的组成部分。

Basic Information
目录编号:
55616
目录名称:
STARLINK-5710
国际标识:
2023-020AZ
轨道中心:
EARTH
卫星名称:
星链-5710
卫星全名:
星链-5710 (STARLINK-5710 )
卫星状态:
在轨 (已飞行1300 天)
发射日期:
2023-02-12 UTC
国别 :
美国 (US)
星等 :
--
Orbit Information
数据来源 国际轨道数据
星历时间: 2026-09-04T06:44:05+0800
13小时前
查看轨道信息
半长轴: 6861.197km
偏心率: 0.0001209
轨道倾角: 43.004°
近地点辐角 268.367°
升交点赤经 67.344°
平近点角 91.704°
近地点: 482.23km
远地点: 483.89km
周期: 94.267分钟
每日圈数: 15.275764
Detailed Information
固有亮度:
5
最大亮度:
2.5
卫星平台:
Starlink v1.5
覆盖范围:
全球
运营商:
太空探索技术公司
运营商所在国:
美国
制造商(研发单位):
太空探索技术公司
制造商所在国:
美国
使用方式:
暂无
Satellite Introduction
星链(Starlink)计划是由太空探索技术公司(SpaceX)提出的一个巨型低轨卫星互联网星座项目,计划在2019年至2024年间在太空搭建由约1.2万颗卫星组成的“星链”网络,其中1584颗将部署在地球上空550千米处的近地轨道,并从2020年开始工作。该卫星仍在工作。
2D Orbit Map
3D Orbit Map
Orbit Altitude Analysis Chart
Orbit Inclination Analysis Chart
Orbit Comprehensive Analysis Chart
View Comprehensive Chart
Conjunction Data List
Event ID Objects TCA Miss Dist (km) Collision Risk Probability Collision Risk Index (CRI) Action
CDM_260906-072705-561606-783221
2026-09-06T
07:27:15+0000
0.673 km
远距离
6.173829E-5 中风险 0.71
CDM_260904-221205-561606-164321
2026-09-04T
22:12:56+0000
1.429 km
极远距离
6.129138E-6 低风险 0.51
CDM_260906-055305-561606-783221
2026-09-06T
05:53:06+0000
1.396 km
极远距离
5.412094E-6 低风险 0.5
CDM_260905-142105-561606-728921
2026-09-05T
14:21:52+0000
1.579 km
极远距离
4.821188E-6 低风险 0.49
CDM_260906-090105-561606-783221
2026-09-06T
09:01:24+0000
2.755 km
极远距离
1.023715E-6 低风险 0.35
CDM_260906-025405-325505-561621
2026-09-06T
02:54:51+0000
2.545 km
极远距离
8.719758E-7 极低风险 0.34